Location: Los Gatos B&B
(42.6926°N, 77.0646°W)
Time: 04:50:38
(UTC-05:00)

SL-16 R/B - Visible Passes

Search period start: 20 January 2017 00:00
Search period end: 30 January 2017 00:00
Orbit: 843 x 847 km, 71.0° (Epoch: 19 January)

Date Brightness Start Highest point End Pass type
(mag) Time Alt. Az. Time Alt. Az. Time Alt. Az.
20 Jan 2.4 04:57:16 59° S 04:57:16 59° S 05:01:51 10° SSE visible
20 Jan 4.1 06:39:13 10° W 06:39:18 10° W 06:39:31 10° W visible
20 Jan 3.1 18:00:06 10° SSE 18:04:48 27° ESE 18:08:54 13° NE visible
20 Jan 3.1 19:43:16 10° SW 19:48:39 44° WNW 19:50:50 31° N visible
21 Jan 3.3 04:44:38 35° SSE 04:44:38 35° SSE 04:47:48 10° SSE visible
21 Jan 3.2 17:46:08 10° SSE 17:50:45 27° ESE 17:55:22 10° NE visible
21 Jan 3.1 19:29:10 10° SW 19:34:34 46° WNW 19:37:58 22° N visible
22 Jan 4.0 04:32:03 20° SSE 04:32:03 20° SSE 04:33:44 10° SSE visible
22 Jan 3.2 17:32:09 10° SSE 17:36:42 26° ESE 17:41:16 10° NE visible
22 Jan 3.1 19:15:04 10° SW 19:20:29 47° WNW 19:24:59 15° N visible
23 Jan 4.7 04:19:30 11° SSE 04:19:30 11° SSE 04:19:41 10° SSE visible
23 Jan 3.0 19:00:57 10° SW 19:06:25 49° WNW 19:11:54 10° NNE visible
24 Jan 3.0 18:46:51 10° SW 18:52:20 50° WNW 18:57:51 10° NNE visible
25 Jan 3.0 18:32:45 10° SW 18:38:15 52° WNW 18:43:48 10° NNE visible
25 Jan 5.0 20:23:10 10° NW 20:23:47 10° NW 20:24:24 10° NNW visible
26 Jan 2.9 18:18:40 10° SW 18:24:11 54° WNW 18:29:45 10° NNE visible
26 Jan 5.0 20:08:37 10° NW 20:09:41 10° NW 20:10:44 10° NNW visible
27 Jan 2.9 18:04:34 10° SW 18:10:07 56° WNW 18:15:42 10° NNE visible
27 Jan 4.9 19:54:12 10° NW 19:55:34 11° NW 19:56:56 10° NNW visible
28 Jan 2.9 17:50:29 10° SW 17:56:02 58° WNW 18:01:38 10° NNE visible
28 Jan 4.9 19:39:50 10° WNW 19:41:28 11° NW 19:43:05 10° NNW visible
29 Jan 2.8 17:36:23 10° SW 17:41:58 60° WNW 17:47:35 10° NNE visible
29 Jan 4.8 19:25:31 10° WNW 19:27:21 11° NW 19:29:11 10° NNW visible
